Weather reports worldwide

Advertisment
Jerez de los Caballeros, Spain (8337): temperature & dewpoint: 05.12.2019 09:00:00 - 11.12.2019 09:00:00 (CET)Jerez de los Caballeros, Spain (8337): wind speed & gusts: 05.12.2019 09:00:00 - 11.12.2019 09:00:00 (CET)Jerez de los Caballeros, Spain (8337): wind direction: 05.12.2019 09:00:00 - 11.12.2019 09:00:00 (CET)Jerez de los Caballeros, Spain (8337): reduced air pressure: 05.12.2019 09:00:00 - 11.12.2019 09:00:00 (CET)Jerez de los Caballeros, Spain (8337): visibility: 05.12.2019 09:00:00 - 11.12.2019 09:00:00 (CET)Jerez de los Caballeros, Spain (8337): sunshine duration: 05.12.2019 09:00:00 - 11.12.2019 09:00:00 (CET)Jerez de los Caballeros, Spain (8337): precipitation: 05.12.2019 09:00:00 - 11.12.2019 09:00:00 (CET)
Date & Time tt [°C] td [°C] ff [km/h] ff [kn] fx [km/h] fx [kn] dd ppp [hPa] vv [km] sd [min] rr [mm]
11.12.2019 09:00:00 - - - - - - - - - - -
11.12.2019 08:00:00 2,4 1,3 6 3 6 4 SW 1028,1 0,2 0 0,0
11.12.2019 07:00:00 3,3 2,1 4 2 5 3 SW 1027,4 0,2 0 -
11.12.2019 06:00:00 3,7 2,4 0 0 5 3 N - - 0 0,0
11.12.2019 05:00:00 4,4 3,0 2 1 6 4 ESE 1027,4 13 0 0,0
11.12.2019 04:00:00 3,9 2,6 6 3 7 4 E - - 0 0,0
11.12.2019 03:00:00 5,4 4,1 4 2 8 4 E 1027,6 7 0 0,0
11.12.2019 02:00:00 5,4 3,8 6 3 8 4 ESE 1028,1 20 0 0,0
11.12.2019 01:00:00 6,1 4,5 6 3 9 5 E 1028,0 17 0 -
11.12.2019 00:00:00 8,5 6,8 1 1 4 2 WNW 1027,9 17 0 0,0
10.12.2019 23:00:00 8,6 6,8 2 1 5 3 WNW 1027,8 15 0 0,0
10.12.2019 22:00:00 9,2 6,7 3 2 6 3 S 1028,3 9 0 0,0
10.12.2019 21:00:00 9,4 6,7 6 3 7 4 SE 1027,9 18 0 0,0
10.12.2019 20:00:00 11,3 7,6 3 2 6 3 ENE 1027,3 20 0 0,0
10.12.2019 19:00:00 11,9 8,1 6 3 9 5 ESE 1026,9 20 0 -
10.12.2019 18:00:00 13,3 8,1 5 3 14 8 SW 1026,8 20 14 0,0
10.12.2019 17:00:00 14,8 8,1 10 5 14 8 SW 1026,8 20 56 0,0
10.12.2019 16:00:00 14,9 8,4 7 4 10 5 SW 1026,7 20 42 0,0
10.12.2019 15:00:00 15,1 5,8 5 3 8 5 SW 1027,0 20 60 0,0
10.12.2019 14:00:00 12,0 7,3 2 1 14 8 N 1028,3 20 60 0,0
10.12.2019 13:00:00 8,9 7,1 14 8 19 10 ESE 1029,8 15 60 -
10.12.2019 12:00:00 7,3 6,2 15 8 19 10 E - - 55 0,0
10.12.2019 11:00:00 5,3 4,3 18 10 23 12 E 1031,5 0,1 13 0,0
10.12.2019 10:00:00 5,0 3,9 13 7 24 13 E 1031,0 0,8 0 0,0
10.12.2019 09:00:00 5,0 3,8 13 7 22 12 E 1030,6 0,1 0 0,0
10.12.2019 08:00:00 5,1 3,4 16 9 22 12 ENE 1030,3 6 0 0,0
10.12.2019 07:00:00 4,3 2,9 9 5 15 8 E 1030,5 18 0 -
10.12.2019 06:00:00 4,2 2,9 2 1 11 6 ESE - - 0 0,0
10.12.2019 05:00:00 4,8 3,2 9 5 14 8 ENE 1030,8 14 0 0,0
10.12.2019 04:00:00 4,9 3,6 5 3 13 7 ENE 1031,0 19 0 0,0
10.12.2019 03:00:00 4,8 3,4 11 6 15 8 E 1031,1 15 0 0,0
10.12.2019 02:00:00 5,3 3,2 5 3 8 5 WSW 1031,6 18 0 0,0
10.12.2019 01:00:00 5,7 3,6 4 2 9 5 ESE 1031,7 20 0 -
10.12.2019 00:00:00 7,0 4,3 4 2 9 5 WSW 1031,8 20 0 0,0
09.12.2019 23:00:00 8,3 5,0 3 1 9 5 ENE 1031,6 20 0 0,0
09.12.2019 22:00:00 8,8 5,0 4 2 9 5 E 1031,8 20 0 0,0
09.12.2019 21:00:00 11,0 4,8 3 1 7 4 SW 1031,1 20 0 0,0
09.12.2019 20:00:00 11,7 4,8 5 3 19 10 ESE 1030,5 20 0 0,0
09.12.2019 19:00:00 12,8 4,8 16 9 23 12 N 1029,9 20 0 -
09.12.2019 18:00:00 14,6 3,0 14 8 18 10 N 1029,3 20 53 0,0
09.12.2019 17:00:00 17,2 10,0 4 2 9 5 S 1028,8 20 60 0,0
09.12.2019 16:00:00 16,6 10,0 4 2 16 9 S 1029,0 20 60 0,0
09.12.2019 15:00:00 17,0 10,4 8 5 18 10 SSW 1029,0 20 60 0,0
09.12.2019 14:00:00 16,2 10,3 5 3 16 8 SSW 1029,6 20 56 0,0
09.12.2019 13:00:00 14,7 10,2 5 3 10 5 SSW 1030,8 20 55 -
09.12.2019 12:00:00 13,4 12,1 2 1 7 4 SW - - 47 0,0
09.12.2019 11:00:00 11,8 10,5 2 1 7 4 NNW 1031,5 0,4 0 0,0
09.12.2019 10:00:00 12,2 11,0 3 2 7 4 SE 1030,8 0,2 19 0,0
09.12.2019 09:00:00 11,3 10,2 4 2 9 5 WSW 1030,5 0,8 0 0,0
09.12.2019 08:00:00 11,4 10,2 6 3 9 5 E 1029,6 0,7 0 0,0
09.12.2019 07:00:00 12,2 11,1 6 3 9 5 NW 1029,2 19 0 -
09.12.2019 06:00:00 12,4 11,3 7 4 8 5 SW - - 0 0,0
09.12.2019 05:00:00 12,3 11,2 6 4 9 5 WSW 1028,5 0,2 0 0,0
09.12.2019 04:00:00 12,3 11,2 4 2 9 5 WSW 1028,6 0,2 0 0,0
09.12.2019 03:00:00 12,1 10,9 8 4 11 6 SW 1028,5 0,1 0 0,2
09.12.2019 02:00:00 12,1 10,9 6 4 12 6 SW 1028,6 0,1 0 0,0
09.12.2019 01:00:00 12,3 11,0 10 5 13 7 SSW 1028,9 0,1 0 -
09.12.2019 00:00:00 12,3 10,9 9 5 16 8 WSW - - 0 0,0
08.12.2019 23:00:00 12,4 10,6 8 4 10 5 SW 1028,5 5 0 0,0
08.12.2019 22:00:00 12,4 10,6 6 3 11 6 SW 1028,5 16 0 0,0
08.12.2019 21:00:00 12,4 10,6 8 5 14 8 WSW 1028,6 18 0 0,0
08.12.2019 20:00:00 12,5 10,5 6 3 12 7 WSW 1027,9 20 0 0,0
08.12.2019 19:00:00 12,7 10,6 9 5 13 7 W 1027,7 20 0 -
08.12.2019 18:00:00 13,4 10,5 7 4 11 6 W 1027,4 20 0 0,0
08.12.2019 17:00:00 14,0 10,8 6 3 16 9 SW 1026,9 20 0 0,0
08.12.2019 16:00:00 13,9 10,9 13 7 27 14 W 1026,8 20 0 0,0
08.12.2019 15:00:00 14,6 10,8 16 9 29 16 W 1026,5 20 12 0,0
08.12.2019 14:00:00 14,3 8,9 7 4 14 8 SW 1026,5 20 51 0,0
08.12.2019 13:00:00 11,9 7,8 4 2 6 4 SW 1027,7 20 8 -
08.12.2019 12:00:00 8,9 7,3 3 2 10 6 WSW 1028,7 16 24 0,0
08.12.2019 11:00:00 7,4 6,3 2 1 9 5 E - - 58 0,0
08.12.2019 10:00:00 4,1 3,0 4 2 9 5 NE 1029,4 0,1 51 0,0
08.12.2019 09:00:00 3,8 2,8 6 3 10 5 E - - 5 0,0
08.12.2019 08:00:00 3,5 2,5 4 2 8 5 E 1028,6 0,1 0 0,0
08.12.2019 07:00:00 3,4 2,1 3 2 8 4 NE 1027,8 0,2 0 -
08.12.2019 06:00:00 3,9 2,7 5 3 11 6 ENE 1027,5 0,1 0 0,0
08.12.2019 05:00:00 4,9 3,8 5 3 13 7 E 1027,6 8 0 0,0
08.12.2019 04:00:00 4,9 3,6 6 3 8 5 E 1027,7 0,2 0 0,0
08.12.2019 03:00:00 6,0 4,5 3 2 11 6 W 1027,5 10 0 0,0
08.12.2019 02:00:00 6,0 4,6 10 5 14 7 E 1027,7 10 0 0,0
08.12.2019 01:00:00 6,8 4,6 3 1 7 4 E 1027,7 5 0 -
08.12.2019 00:00:00 7,7 5,3 2 1 6 4 WSW 1027,6 20 0 0,0
07.12.2019 23:00:00 8,8 5,9 2 1 5 3 SE 1027,1 20 0 0,0
07.12.2019 22:00:00 9,2 6,2 2 1 9 5 NNW 1026,8 20 0 0,0
07.12.2019 21:00:00 10,6 6,4 2 1 9 5 N 1026,0 20 0 0,0
07.12.2019 20:00:00 12,0 6,5 3 2 11 6 S 1025,5 20 0 0,0
07.12.2019 19:00:00 12,9 6,5 4 2 18 10 NNE 1024,7 20 0 -
07.12.2019 18:00:00 14,4 6,5 13 7 17 9 WNW 1023,9 20 41 0,0
07.12.2019 17:00:00 17,4 6,5 9 5 16 9 WSW 1022,9 20 60 0,0
07.12.2019 16:00:00 17,8 7,0 13 7 20 11 SW 1022,4 20 60 0,0
07.12.2019 15:00:00 17,6 8,9 9 5 16 8 SSW 1022,4 20 60 0,0
07.12.2019 14:00:00 16,0 8,3 4 2 14 8 E 1023,3 20 60 0,0
07.12.2019 13:00:00 14,5 8,7 11 6 14 8 E 1024,0 20 60 -
07.12.2019 12:00:00 12,8 7,8 9 5 19 10 E 1024,9 20 60 0,0
07.12.2019 11:00:00 10,1 7,0 9 5 14 8 E 1025,2 20 60 0,0
07.12.2019 10:00:00 7,1 5,3 12 6 15 8 E 1025,2 20 60 0,0
07.12.2019 09:00:00 6,0 4,6 6 3 16 9 E 1025,2 9 14 0,0
07.12.2019 08:00:00 4,8 3,2 10 5 15 8 E 1025,0 5 0 0,0
07.12.2019 07:00:00 7,1 5,0 10 5 17 9 E 1023,9 15 0 -
07.12.2019 06:00:00 5,7 4,3 13 7 18 10 ENE 1024,0 16 0 0,0
07.12.2019 05:00:00 6,8 4,1 4 2 20 11 S 1023,8 11 0 0,0
07.12.2019 04:00:00 8,4 5,5 12 7 20 11 ENE 1023,4 18 0 0,0
07.12.2019 03:00:00 6,3 4,5 11 6 19 11 E 1023,5 17 0 0,0
07.12.2019 02:00:00 7,5 5,5 12 6 17 9 ENE 1023,3 20 0 0,0
07.12.2019 01:00:00 8,5 5,5 8 4 13 7 E 1023,7 20 0 -
07.12.2019 00:00:00 9,7 6,2 9 5 15 8 E 1023,5 16 0 0,0
06.12.2019 23:00:00 9,2 6,1 8 5 14 8 E 1023,0 20 0 0,0
06.12.2019 22:00:00 10,4 6,5 10 5 14 7 ENE 1022,5 20 0 0,0
06.12.2019 21:00:00 10,5 6,7 6 4 18 10 E 1022,3 20 0 0,0
06.12.2019 20:00:00 11,0 6,7 10 5 19 10 ESE 1021,7 20 0 0,0
06.12.2019 19:00:00 12,8 7,0 13 7 25 14 NNE 1021,0 20 0 -
06.12.2019 18:00:00 13,8 7,1 19 10 24 13 NNE 1020,3 20 50 0,0
06.12.2019 17:00:00 15,1 6,7 18 10 30 16 NE 1019,9 20 60 0,0
06.12.2019 16:00:00 15,8 6,2 18 10 26 14 NE 1019,6 20 60 0,0
06.12.2019 15:00:00 15,5 7,3 20 11 29 16 E 1019,6 14 60 0,0
06.12.2019 14:00:00 15,2 6,5 20 11 27 15 ENE 1020,1 20 60 0,0
06.12.2019 13:00:00 14,2 7,4 19 11 31 17 E 1021,0 20 60 -
06.12.2019 12:00:00 12,3 7,0 23 12 31 17 ENE 1021,7 20 60 0,0
06.12.2019 11:00:00 10,4 6,1 22 12 34 19 ENE 1022,2 20 60 0,0
06.12.2019 10:00:00 9,2 5,6 19 10 29 16 ENE 1022,0 14 60 0,0
06.12.2019 09:00:00 7,2 5,0 19 10 24 13 ENE 1021,5 20 16 0,0
06.12.2019 08:00:00 7,4 5,1 16 9 24 13 ENE 1021,2 20 0 0,0
06.12.2019 07:00:00 6,6 4,5 16 8 27 14 ENE 1021,0 20 0 -
06.12.2019 06:00:00 7,3 4,8 11 6 21 11 ENE 1020,1 20 0 0,0
06.12.2019 05:00:00 7,7 4,8 12 7 24 13 E 1020,0 20 0 0,0
06.12.2019 04:00:00 8,8 5,1 15 8 33 18 NE 1019,7 20 0 0,0
06.12.2019 03:00:00 9,1 5,5 26 14 38 20 ENE 1018,9 20 0 0,0
06.12.2019 02:00:00 9,4 5,6 27 14 35 19 ENE 1018,8 20 0 0,0
06.12.2019 01:00:00 9,6 5,6 25 13 36 19 ENE 1019,1 20 0 -
06.12.2019 00:00:00 10,5 5,6 26 14 33 18 ENE 1019,0 20 0 0,0
05.12.2019 23:00:00 10,0 5,6 20 11 27 14 ENE 1019,0 20 0 0,0
05.12.2019 22:00:00 11,0 5,5 21 12 36 19 ENE 1018,5 20 0 0,0
05.12.2019 21:00:00 12,2 5,0 24 13 32 18 NE 1017,4 20 0 0,0
05.12.2019 20:00:00 12,6 4,8 21 11 36 19 ENE 1016,8 20 0 0,0
05.12.2019 19:00:00 12,8 5,3 21 11 44 24 ENE 1016,3 20 0 -
05.12.2019 18:00:00 13,6 4,6 31 17 56 30 ENE 1015,5 20 31 0,0
05.12.2019 17:00:00 13,9 5,0 34 18 48 26 NE 1015,0 20 28 0,0
05.12.2019 16:00:00 13,9 5,3 28 15 45 24 ENE 1014,7 20 31 0,0
05.12.2019 15:00:00 14,2 5,0 36 19 49 26 ENE 1014,4 20 46 0,0
05.12.2019 14:00:00 13,9 5,8 29 15 44 24 NE 1015,2 20 60 0,0
05.12.2019 13:00:00 13,4 6,1 33 18 46 25 ENE 1015,7 20 60 -
05.12.2019 12:00:00 12,8 5,6 22 12 36 20 E 1016,0 20 60 0,0
05.12.2019 11:00:00 10,7 6,7 16 9 20 11 E 1016,3 20 58 0,0
05.12.2019 10:00:00 9,4 6,2 11 6 14 8 E 1016,0 20 60 0,0
05.12.2019 09:00:00 8,4 5,8 8 5 9 5 NNE 1015,6 20 22 0,0

tt = temperature
td = dewpoint
ff = wind speed
fx = gusts
dd = wind direction
ppp = reduced air pressure
vv = visibility
sd = sunshine duration
rr = precipitation

Next stations